Location: Chervonnoye
(48.6000°N, 34.4000°E)
Time: 14:36:09
(UTC+00:00)

COSMO-SKYMED 1 - Pass Details

Date: 23 November 2020
Orbit: 621 x 623 km, 97.9° (Epoch: 27 January)

Event Time Altitude Azimuth Distance (km) Brightness Sun altitude
Exits shadow 16:33:13 21° 352° (N) 1,410 4.4 -25.7°
Maximum altitude 16:35:45 44° 291° (WNW) 864 3.6 -26.2°
Drops below altitude 10° 16:39:53 10° 219° (SW) 1,993 5.6 -26.8°
Sets 16:42:08 0° 213° (SSW) 2,894 6.4 -27.2°
